Location: Newark
(52.5694°N, 1.3190°W)
Time: 22:33:15
(UTC+00:00)

N. Korean satellite - Visible Passes

Search period start: 24 January 2020 00:00
Search period end: 03 February 2020 00:00
Orbit: 454 x 507 km, 97.2° (Epoch: 24 January)

Date Brightness Start Highest point End Pass type
(mag) Time Alt. Az. Time Alt. Az. Time Alt. Az.
24 Jan 6.5 06:08:27 10° NNE 06:12:01 89° ESE 06:15:37 10° SSW visible
25 Jan 7.7 05:43:01 10° NNE 05:46:28 45° E 05:49:56 10° S visible
25 Jan 8.0 07:17:04 10° NNW 07:19:36 19° WNW 07:22:10 10° WSW visible
25 Jan 9.6 17:58:33 10° SW 18:00:56 18° W 18:03:21 10° NW visible
26 Jan 8.9 05:17:51 10° NE 05:20:51 25° E 05:23:51 10° SSE visible
26 Jan 7.3 06:51:05 10° N 06:54:17 32° WNW 06:57:30 10° SW visible
26 Jan 8.6 17:32:08 10° SSW 17:35:14 32° W 17:38:23 10° NNW visible
27 Jan 9.8 04:53:09 10° NE 04:55:08 14° E 04:57:06 10° ESE visible
27 Jan 6.5 06:25:21 10° N 06:28:52 59° WNW 06:32:26 10° SSW visible
28 Jan 6.8 05:59:47 10° NNE 06:03:23 72° ESE 06:07:00 10° S visible
28 Jan 10.0 18:16:35 10° WSW 18:17:57 12° W 18:19:20 10° WNW visible
29 Jan 8.1 05:34:26 10° NNE 05:37:48 37° E 05:41:12 10° SSE visible
29 Jan 7.8 07:08:11 10° NNW 07:11:02 22° WNW 07:13:55 10° WSW visible
29 Jan 9.4 17:49:29 10° SW 17:52:12 21° W 17:54:57 10° NW visible
30 Jan 9.3 05:09:21 10° NE 05:12:09 21° E 05:14:57 10° SE visible
30 Jan 7.0 06:42:18 10° N 06:45:41 39° WNW 06:49:05 10° SW visible
30 Jan 8.1 17:23:17 10° S 17:26:32 40° W 17:29:50 10° NNW visible
31 Jan 10.1 04:45:01 10° ENE 04:46:24 12° E 04:47:46 10° ESE visible
31 Jan 6.5 06:16:38 10° N 06:20:14 74° WNW 06:23:53 10° SSW visible
01 Feb 7.2 05:51:08 10° NNE 05:54:43 57° E 05:58:20 10° S visible
01 Feb 9.8 18:07:11 10° SW 18:09:11 15° W 18:11:13 10° NW visible
02 Feb 8.6 05:25:51 10° NNE 05:29:07 30° E 05:32:24 10° SSE visible
02 Feb 7.5 06:59:21 10° N 07:02:26 27° WNW 07:05:34 10° SW visible
02 Feb 9.1 17:40:30 10° SSW 17:43:27 26° W 17:46:28 10° NW visible
